This demonstration page uses our WeatherBlox Daily Observations layout. Learn more.

Left ArrowRight Arrow

Hourly Observations for April 18, 2018

Temp ( °F °C ) Dew Point ( °F °C ) Humidity (%) Winds ( mph kmh ) Pressure ( in mb ) Visibility ( mi km ) Precip ( " mm )
12:59 am 00:59 Clear 49 9.4 32 0 52 52 NE 9 15 29.88 1012 10 16 0.00 0.00
1:59 am 01:59 Clear 47 8.3 32 0 56 56 NE 8 13 29.88 1012 10 16 0.00 0.00
2:59 am 02:59 Mostly Clear 48 8.9 32 0 54 54 NE 8 13 29.88 1012 10 16 0.00 0.00
3:59 am 03:59 Mostly Clear 47 8.3 33 0.6 59 59 NE 9 15 29.90 1013 10 16 0.00 0.00
4:59 am 04:59 Mostly Cloudy 48 8.9 35 1.7 61 61 NE 9 15 29.91 1013 10 16 0.00 0.00
5:59 am 05:59 Mostly Cloudy 47 8.3 35 1.7 63 63 NE 14 22 29.91 1013 10 16 0.00 0.00
6:59 am 06:59 Mostly Cloudy 47 8.3 32 0 56 56 ENE 9 15 29.94 1014 10 16 0.00 0.00
7:59 am 07:59 Partly Cloudy 47 8.3 33 0.6 59 59 NE 7 11 29.96 1015 10 16 0.00 0.00
8:59 am 08:59 Partly Cloudy 49 9.4 33 0.6 55 55 VRB 6 9 29.96 1015 10 16 0.00 0.00
9:59 am 09:59 Mostly Cloudy 49 9.4 33 0.6 55 55 NE 6 9 29.97 1015 10 16 0.00 0.00
10:59 am 10:59 Mostly Sunny 52 11.1 35 1.7 53 53 ENE 5 7 29.95 1014 10 16 0.00 0.00
11:59 am 11:59 Mostly Sunny 54 12.2 37 2.8 53 53 NNE 7 11 29.93 1013 10 16 0.00 0.00
12:59 pm 12:59 Mostly Sunny 54 12.2 38 3.3 55 55 NE 7 11 29.91 1013 10 16 0.00 0.00
1:59 pm 13:59 Mostly Sunny 56 13.3 40 4.4 55 55 NE 7 11 29.90 1012 10 16 0.00 0.00
2:59 pm 14:59 Sunny 59 15 43 6.1 56 56 E 7 11 29.86 1011 10 16 0.00 0.00
3:59 pm 15:59 Mostly Sunny 62 16.7 45 7.2 54 54 NE 8 13 29.82 1010 10 16 0.00 0.00
4:59 pm 16:59 Mostly Sunny 65 18.3 47 8.3 52 52 ESE 6 9 29.79 1009 10 16 0.00 0.00
5:59 pm 17:59 Mostly Sunny 65 18.3 48 8.9 54 54 SSE 8 13 29.78 1009 10 16 0.00 0.00
6:59 pm 18:59 Mostly Sunny 60 15.6 46 7.8 60 60 ESE 10 17 29.77 1008 10 16 0.00 0.00
7:59 pm 19:59 Mostly Clear 59 15 47 8.3 64 64 SSE 9 15 29.75 1007 10 16 0.00 0.00
8:59 pm 20:59 Clear 55 12.8 47 8.3 74 74 SE 7 11 29.75 1007 10 16 0.00 0.00
9:59 pm 21:59 Clear 54 12.2 47 8.3 77 77 E 6 9 29.75 1008 10 16 0.00 0.00
10:59 pm 22:59 Clear 53 11.7 47 8.3 80 80 S 6 9 29.72 1007 10 16 0.00 0.00
11:59 pm 23:59 Clear 51 10.6 47 8.3 86 86 SSE 6 9 29.69 1005 10 16 0.00 0.00

Powered by AerisWeather